This is the latest recevied weather packets stored in our database for station/object N6WDO. If no packets are shown the sender has not sent any weather packets the latest 10 day(s).
| Time | Temp. | Humidity | Pressure | Rain* | Wind** | Luminosity | Snow |
|---|---|---|---|---|---|---|---|
| 1777247276 | 12.22° C | 77% | 1014.9 hPa | 0 mm | - | 105 W/m² | - |
| 1777246974 | 12.22° C | 77% | 1014.9 hPa | 0 mm | - | 102 W/m² | - |
| 1777246670 | 12.78° C | 76% | 1014.8 hPa | 0 mm | - | 107 W/m² | - |
| 1777246367 | 12.78° C | 76% | 1014.9 hPa | 0 mm | - | 117 W/m² | - |
| 1777246064 | 12.78° C | 77% | 1015.1 hPa | 0 mm | - | 128 W/m² | - |
| 1777245762 | 12.78° C | 77% | 1014.9 hPa | 0 mm | - | 135 W/m² | - |
| 1777245459 | 12.78° C | 75% | 1014.9 hPa | 0 mm | - | 145 W/m² | - |
| 1777245154 | 12.78° C | 75% | 1014.9 hPa | 0 mm | - | 156 W/m² | - |
| 1777244851 | 12.78° C | 75% | 1015.2 hPa | 0 mm | - | 173 W/m² | - |
| 1777244546 | 13.33° C | 72% | 1015.1 hPa | 0 mm | - | 179 W/m² | - |
| 1777244243 | 13.33° C | 72% | 1015.3 hPa | 0 mm | - | 175 W/m² | - |
| 1777243942 | 13.33° C | 74% | 1015.1 hPa | 0 mm | - | 183 W/m² | - |
| 1777243637 | 13.33° C | 73% | 1015.2 hPa | 0 mm | - | 183 W/m² | - |
| 1777243335 | 13.33° C | 74% | 1015.2 hPa | 0 mm | - | 159 W/m² | - |
| 1777243030 | 13.33° C | 76% | 1015.2 hPa | 0 mm | - | 196 W/m² | - |
| 1777242728 | 12.78° C | 75% | 1015 hPa | 0 mm | - | 239 W/m² | - |
| 1777242423 | 12.78° C | 76% | 1015 hPa | 0 mm | - | 228 W/m² | - |
| 1777242120 | 12.78° C | 78% | 1015.2 hPa | 0 mm | - | 206 W/m² | - |
| 1777241817 | 13.33° C | 74% | 1015.3 hPa | 0 mm | - | 194 W/m² | - |
| 1777241515 | 13.33° C | 76% | 1015.4 hPa | 0 mm | - | 213 W/m² | - |
| 1777241213 | 12.78° C | 78% | 1015.3 hPa | 0 mm | - | 238 W/m² | - |
| 1777240909 | 12.78° C | 78% | 1015.2 hPa | 0 mm | - | 262 W/m² | - |
| 1777240608 | 12.22° C | 81% | 1015.5 hPa | 0 mm | - | 300 W/m² | - |
| 1777240305 | 12.22° C | 82% | 1015.3 hPa | 0 mm | - | 258 W/m² | - |
| 1777240002 | 12.22° C | 81% | 1015.5 hPa | 0 mm | - | 217 W/m² | - |
* Rain latest hour (hover to see other rain measurements)
** Current wind speed in m/s (hover to see current wind gust speed)